Погода Марьина Горка

Погода Марьина Горка : погода сейчас, прогноз погоды и архив. Всё, что Вы хотите узнать о погоде Марьина Горка!

Хотите узнать прогноз погоды Марьина Горка? Тогда Вам сюда: Погода Марьина Горка

Поиск расширенной информации на нашем сайте:

Полезная информация:

Другие новости

Новости СМИ2

Главная страница сайта

Новости сайта

03.07.2017

Напоминаем, что на нашем специализированном сайте Метеоцентр.Азия вы можете получить высокодетализированные автоматические прогнозы погоды по пунктам России, СНГ и мира в авиационном формате (включающие направление и скорость ветра, видимость, явления погоды, количество и форму облачности, нижнюю и верхнюю границу облачности).

Рекомендуем:

Погода Марьина Горка - сегодня

Время (UTC), дата Ветер
(°,м/с) 
Видим.   Явления Облачность Т
(°С)
Тd
(°С)
f(%) Тe
(°С)
Pmin
(гПа)
dP
(гПа)
Po
(мм)
O2
(г/м3)
Тmin Tmax R s Состояние
почвы
03 22.03.19 290 (З) 7-12{12}  16000 м    9/9 500 м 
[Sc]
+8.8 +6.9 88 +7  1018.8  -1.5  748  291           
06 22.03.19 310 (СЗ) 4{12}  18000 м  в посл. час ливневой дождь  9/8 600 м средняя 
[Sc|Ac und]
+8.2 +6.2 87 +7  1020.3  1.4  749  292  +6.7    0.0     
09 22.03.19 340 (С) 7-13{15}  25000 м  {ливн. осадки}  8/8 600 м 
[Sc]
+9.4 +1.8 59 +7  1021.5  1.2  750  292           
12 22.03.19 350 (С) 6-11{16}  30000 м  {ливн. осадки}  1/1 2000 м средняя 
[Ac und]
+9.2 -7.1 31 +7  1023.2  1.6  751  294           
15 22.03.19 340 (С) 6-11{14}  30000 м    ясно 
+8.1 -6.1 36 +6  1024.1  0.8  752  295           
18 22.03.19 330 (СЗ) 4{11}  30000 м    ясно 
+4.5 -6.7 44 +3  1025.7  1.3  753  299    +10.2  0.0     
21 22.03.19 330 (СЗ) 25000 м    ясно 
+1.9 -5.9 56 1026.9  754  302           
00 23.03.19 340 (С) 23000 м    3/0 верхняя 
[Cs]
-0.4 -5 71 -1  1027.5  0.4  754  305           
03 23.03.19 330 (СЗ) 20000 м    1/0 верхняя 
[Ci fib]
-1.6 -4.8 79 -4  1028  0.4  754  306           
06 23.03.19 360 (С) 23000 м    ясно 
+0.5 -4.7 68 -1  1028.5  0.7  755  304  -1.9         
09 23.03.19 340 (С) 28000 м    5/0 верхняя 
[Ci fib]
+5.5 -4.4 49 +4  1028.1  755  299           
12 23.03.19 360 (С) 30000 м    5/0 верхняя 
[Ci fib]
+8.3 -3.9 42 +8  1025.9  -2  753  295           
15 23.03.19 320 (СЗ) 30000 м    5/0 верхняя 
[Ci fib]
+9.8 -4.9 35 +11  1023.9  -1.8  752  293           
18 23.03.19 180 (Ю) 25000 м    3/0 верхняя 
[Ci fib]
+4.2 -5 51 +5  1022.9  -1.4  751  298    +10       
21 23.03.19 220 (ЮЗ) 23000 м    4/0 верхняя 
[Ci fib]
+2.4 -4.8 59 +1  1021.4  -1.6  750  300           
00 24.03.19 220 (ЮЗ) 23000 м    9/8 2000 м средняя, верхняя 
[Ac und|Ci fib]
+4.6 -4.7 51 +3  1018.3  -2.9  747  297           
03 24.03.19 270 (З) 15000 м  {ливн. осадки}  9/0 средняя 
[Ac und]
+4.3 -0.9 69 +5  1016.4  -1.9  746  296           
06 24.03.19 320 (СЗ) 16000 м  {ливн. осадки}  5/0 верхняя 
[Ci fib]
+5.2 +2.2 81 +4  1016.7  0.4  746  295  +2    0.3     
09 24.03.19 330 (СЗ) 5-11{11}  23000 м    ясно 
+8.9 -0.7 51 +7  1016.8  0.4  747  291           
12 24.03.19 340 (С) 5-11{11}  30000 м    9/4 600 м верхняя 
[Cu med, cong|Ci fib]
+9.5 -4.5 37 +8  1016.2  -0.6  746  291           
15 24.03.19 320 (СЗ) 4{11}  29000 м    9/3 2000 м средняя, верхняя 
[As trans|Cs]
+9 -4.9 37 +8  1015.4  -0.8  746  291           
18 24.03.19 310 (СЗ) 23000 м    4/3 2000 м средняя, верхняя 
[Ac und|Cs]
+4.5 -1.7 64 +4  1015.6  -0.1  745  296    +10.5       
21 24.03.19 300 (СЗ) 20000 м    ясно 
+1.5 -2.4 75 +2  1015.6  -0.3  745  299           
00 25.03.19 тихо ()   20000 м    4/3 2000 м средняя, верхняя 
[Ac und|Ci fib]
+0.7 -2.7 78 +1  1014.2  -1.4  744  299           
03 25.03.19 210 (ЮЗ) 14000 м    8/3 2000 м средняя, верхняя 
[Ac und|Ci fib]
-1.2 -2.9 88 -1  1013.2  -1.1  743  301           
Время (UTC), дата Ветер
(°,м/с) 
Видим.   Явления Облачность Т
(°С)
Тd
(°С)
f(%) Тe
(°С)
Pmin
(гПа)
dP
(гПа)
Po
(мм)
O2
(г/м3)
Тmin Tmax R s Состояние
почвы

Для получения пояснительной информации подведите курсор к названию столбца.

ПОГОДА Марьина Горка - архив

Всё, что Вы хотите узнать о погоде Марьина Горка - удобно и подробно!

Выберите нужную дату (начиная с 1 января 2018* года) и нажмите кнопку "Найти".
Будут отображены архивные сводки погоды по пункту Марьина Горка, начиная с указанной даты.


Отображать данные в формате CSV (для использования в таблицах Excel)


Внимание! Наш архив погоды предназначен исключительно для личного некоммерческого использования в познавательных целях. Если Вам необходимы официальные справки о состоянии погоды (для производственных, юридических, коммерческих и т.п. целей), обращайтесь в органы Росгидромета.

*Примечание: данная дата относится к архиву по метеостанциям СССР (Россия, СНГ, Балтия).
Архив по метеостанциям Зарубежной Европы и Азии (кроме Китая) хранится 10 дней, по другим регионам земного шара (Китай, Африка, Америка, Австралия, Океания) - 1 день.

Марьина Горка - район местоположения метеостанции


Название, широта, долгота, высота метеостанции:
Марьина Горка 55.4°ш. 28.1°д. 177 м над ур. моря [Беларусь]

Дополнительная информация

В oтличие oт бoльшинства пoгoдных сайтoв мы публикуем пoдрoбную метеoинфoрмацию в детальнoм прoфессиoнальнoм фoрмате.

Характеристики температуры и влажнoсти вoздуха измеряются на высoте 2 м в тени вдали oт зданий и деревьев.
Скoрoсть ветра измеряется на высoте 10 м (на урoвне рoста челoвека скoрoсть ветра ниже в 1.5-2 раза). Если метеoстанция нахoдится в гoрoде или в лесу, тo скoрoсть ветра занижена на 2-4 м/с пo сравнению с oткрытым местoм. Скoрoсть ветра над акватoриями крупных рек и oзёр, а также на вершинах хoлмoв на 2-5 м/с выше, чем в oбычных услoвиях.
Атмoсфернoе давление в разных тoчках местнoсти мoжет значительнo oтличаться oт давления на метеoстанции, в зависимoсти oт услoвий рельефа (при пoдъёме на 10 м давление пoнижается примернo на 1 мм рт.ст.).